Location: Unspecified
(0.0000°N, 0.0000°E)
Time: 23:43:51
(UTC+00:00)

Traac - Pass Details

Date: 17 December 2025
Orbit: 951 x 1102 km, 32.4° (Epoch: 19 January)

Event Time Altitude Azimuth Distance (km) Brightness Sun altitude
Rises 18:54:57 0° 265° (W) 3,647 12.5 -13.4°
Reaches altitude 10° 18:58:15 10° 280° (W) 2,681 11.2 -14.2°
Maximum altitude 19:03:02 22° 328° (NNW) 1,954 9.7 -15.3°
Drops below altitude 10° 19:07:46 10° 17° (NNE) 2,656 9.9 -16.3°
Enters shadow 19:07:51 10° 17° (NNE) 2,674 9.9 -16.4°
